K5GBW Weather Reports


time (UTC)temp
C
wind
direction
speed
KPH
gust
KPH
rain 1hr
cm
rain 24hr
cm
rain mn
cm
humidity
%
barometer
mb
20260503231546 20 282 8.0 20.9 0.00 0.00 0.00 47 1004.1
20260503230051 20 262 11.3 25.7 0.00 0.00 0.00 47 1004.2
20260503224549 20 281 8.0 22.5 0.00 0.00 0.00 47 1004.3
20260503223051 20 205 8.0 22.5 0.00 0.00 0.00 48 1004.2
20260503221559 20 155 9.7 25.7 0.00 0.00 0.00 48 1004.4
20260503220050 19 243 11.3 24.1 0.00 0.00 0.00 48 1004.6
20260503214550 20 168 9.7 27.4 0.00 0.00 0.00 48 1004.8
20260503213048 19 284 9.7 33.8 0.00 0.00 0.00 48 1004.8
20260503211549 19 214 11.3 32.2 0.00 0.00 0.00 49 1005.1
20260503210048 18 259 8.0 22.5 0.00 0.00 0.00 51 1005.3
20260503204550 18 303 12.9 30.6 0.00 0.00 0.00 53 1005.7
20260503203055 17 245 12.9 25.7 0.00 0.00 0.00 54 1006.0
20260503201551 17 239 19.3 33.8 0.00 0.00 0.00 52 1006.3
20260503200055 18 205 16.1 33.8 0.00 0.00 0.00 51 1006.6
20260503194600 18 210 11.3 27.4 0.00 0.00 0.00 49 1006.7
20260503193048 17 256 14.5 32.2 0.00 0.00 0.00 49 1006.8
20260503191553 17 269 12.9 30.6 0.00 0.00 0.00 52 1006.9
20260503190049 17 262 9.7 29.0 0.00 0.00 0.00 49 1007.2
20260503184549 17 243 16.1 30.6 0.00 0.00 0.00 50 1007.2
20260503183053 16 304 11.3 30.6 0.00 0.00 0.00 54 1007.5
20260503181551 16 251 8.0 22.5 0.00 0.00 0.00 57 1007.8
20260503180058 15 278 14.5 27.4 0.00 0.00 0.00 59 1007.9
20260503174556 14 262 14.5 27.4 0.00 0.00 0.00 62 1008.5
20260503173047 13 240 12.9 27.4 0.00 0.00 0.00 64 1009.1
20260503171555 12 162 8.0 19.3 0.00 0.00 0.00 65 1009.4
20260503110106 9 233 8.0 22.5 0.00 0.00 0.00 59 1011.3
20260503081551 8 214 8.0 16.1 0.00 0.00 0.00 58 1012.5
20260503071608 8 236 4.8 16.1 0.00 0.00 0.00 60 1012.7
20260503060109 7 200 3.2 12.9 0.00 0.00 0.00 63 1013.6
20260503054558 7 243 3.2 9.7 0.00 0.00 0.00 63 1013.6
20260503053048 7 254 3.2 8.0 0.00 0.00 0.00 64 1013.7
20260503051550 7 243 3.2 12.9 0.00 0.00 0.00 65 1013.9
20260503050053 7 213 1.6 9.7 0.00 0.00 0.00 67 1013.8
20260503044552 6 230 1.6 8.0 0.00 0.00 0.00 69 1013.9
20260503043054 6 234 1.6 8.0 0.00 0.00 0.00 72 1014.0
20260503041550 5 197 0.0 3.2 0.00 0.00 0.00 76 1014.0
20260503034548 4 0 0.0 3.2 0.00 0.00 0.00 84 1014.3
20260503033046 3 0 0.0 3.2 0.00 0.00 0.00 85 1014.4
20260503031603 4 0 0.0 3.2 0.00 0.00 0.00 86 1014.4
20260503030050 3 186 0.0 0.0 0.00 0.00 0.00 86 1014.6
20260503024554 3 0 0.0 1.6 0.00 0.00 0.00 85 1014.7
20260503023051 3 0 0.0 1.6 0.00 0.00 0.00 85 1014.8
20260503021555 3 0 0.0 1.6 0.00 0.00 0.00 85 1014.8
20260503020054 3 144 0.0 1.6 0.00 0.00 0.00 84 1014.8
20260503014606 4 0 0.0 1.6 0.00 0.00 0.00 82 1014.6
20260503013050 5 0 0.0 1.6 0.00 0.00 0.00 80 1014.6
20260503011553 5 0 0.0 3.2 0.00 0.00 0.00 78 1014.6
20260503010049 6 0 0.0 6.4 0.00 0.00 0.00 76 1014.6
20260503004549 6 169 0.0 6.4 0.00 0.00 0.00 74 1014.8
20260503003050 6 91 1.6 6.4 0.00 0.00 0.00 71 1014.8
20260503001601 7 221 1.6 9.7 0.00 0.00 0.00 68 1015.1
20260503000054 8 133 3.2 9.7 0.00 0.00 0.00 64 1015.2
20260502234553 9 198 3.2 8.0 0.00 0.00 0.00 62 1015.2
20260502233054 8 91 3.2 12.9 0.00 0.00 0.00 63 1015.3